Flag for Slovakia Weather past 2 weeks in Prešov, Slovakia

Now
63 °F

Clear.


Feels Like: 63 °F
Forecast: 54 / 74 °F
Wind: 1 mph from North

Location: Kosice - Barca

Current Time: Aug 30, 2014 at 11:10:58 PM

Latest Report: Aug 30, 2014 at 10:30 PM


Visibility: 10 mi

Pressure: 30.07 "Hg

Humidity: 83%

Dew point: 57 °F

Location of PrešovLocation

Historic Weather in Prešov — Graph

°F

Prešov temperature yesterday

Maximum temperature yesterday: 72 °F (at 2:30 PM)
Minimum temperature yesterday: 50 °F (at 3:00 AM)
Average temperature yesterday: 61 °F

Past Weeks' High & Low Weather Summary

 TemperatureHumidityPressure
High77 °F (Aug 19, 1:30 PM)100% (Aug 16, 3:30 AM)30.15 "Hg (Aug 16, 3:30 AM)
Low45 °F (Aug 22, 5:30 AM)31% (Aug 22, 1:30 PM)29.74 "Hg (Aug 27, 4:00 AM)
Average61 °F76%29.97 "Hg
* Reported Aug 15 10:00 PM — Aug 30 10:00 PM, Prešov, Weather by CustomWeather, © 2014

Note: Actual official high and low records may vary slightly from our data, if they occured in-between our weather recording intervals... More about our weather records

Advertising

Prešov weather history for previous 24 hours

 ConditionsComfort  
Time TempWeatherWind HumidityBarometerVisibility
10:00 PM
Aug 30
63 °FClear.1 mph83%30.04 "Hg10 mi
9:30 PM64 °FPassing clouds.3 mph78%30.04 "HgN/A
9:00 PM64 °FClear.2 mph78%30.04 "Hg10 mi
8:00 PM64 °FSunny.5 mph78%30.04 "Hg10 mi
7:30 PM68 °FSunny.3 mph69%30.04 "Hg10 mi
7:00 PM70 °FSunny.2 mph64%30.04 "Hg10 mi
6:30 PM72 °FSunny.3 mph57%30.04 "Hg10 mi
6:00 PM72 °FSunny.5 mph57%30.04 "Hg10 mi
5:30 PM75 °FPassing clouds.9 mph50%30.04 "HgN/A
5:00 PM73 °FSunny.8 mph53%30.07 "Hg10 mi
4:30 PM75 °FPassing clouds.9 mph47%30.07 "HgN/A
4:00 PM73 °FSunny.12 mph50%30.07 "Hg10 mi
3:30 PM75 °FPassing clouds.8 mph47%30.07 "HgN/A
3:00 PM73 °FPassing clouds.8 mph50%30.07 "HgN/A
2:30 PM73 °FSunny.10 mph50%30.07 "Hg10 mi
2:00 PM73 °FSunny.12 mph47%30.09 "Hg10 mi
1:30 PM73 °FPassing clouds.8 mph47%30.09 "HgN/A
1:00 PM73 °FPassing clouds.10 mph50%30.09 "HgN/A
12:30 PM72 °FScattered clouds.8 mph53%30.09 "HgN/A
12:00 PM72 °FPassing clouds.8 mph53%30.09 "HgN/A
11:30 AM72 °FPassing clouds.8 mph57%30.09 "HgN/A
11:00 AM70 °FPassing clouds.8 mph60%30.12 "HgN/A
10:30 AM68 °FPassing clouds.6 mph60%30.12 "HgN/A
10:00 AM66 °FPassing clouds.3 mph68%30.12 "HgN/A
9:30 AM66 °FSunny.2 mph68%30.12 "Hg10 mi
9:00 AM63 °FSunny.1 mph73%30.12 "Hg10 mi
8:30 AM61 °FSunny.1 mph72%30.12 "Hg10 mi
8:00 AM57 °FSunny.1 mph82%30.12 "Hg10 mi
7:30 AM57 °FSunny.1 mph88%30.09 "Hg10 mi
7:00 AM54 °FPassing clouds.1 mph94%30.09 "HgN/A
6:30 AM50 °FFog.1 mph94%30.09 "HgN/A
6:00 AM50 °FPassing clouds.3 mph100%30.09 "HgN/A
5:30 AM48 °FClear.1 mph100%30.09 "Hg10 mi
5:00 AM50 °FPassing clouds.1 mph94%30.09 "HgN/A
4:30 AM50 °FClear.1 mph94%30.09 "Hg10 mi
4:00 AM50 °FClear.1 mph94%30.09 "Hg10 mi
3:30 AM52 °FClear.1 mph94%30.09 "Hg10 mi
3:00 AM52 °FPassing clouds.1 mph94%30.09 "HgN/A
2:30 AM54 °FPassing clouds.1 mph88%30.09 "HgN/A
2:00 AM54 °FClear.1 mph88%30.09 "Hg10 mi
1:30 AM54 °FClear.1 mph88%30.09 "Hg10 mi
1:00 AM54 °FClear.3 mph94%30.09 "Hg10 mi
12:30 AM54 °FClear.1 mph88%30.09 "Hg10 mi
12:00 AM54 °FClear.2 mph88%30.09 "Hg10 mi
11:30 PM
Aug 29
55 °FClear.2 mph82%30.09 "Hg10 mi
11:00 PM55 °FClear.1 mph82%30.09 "Hg10 mi
Weather by CustomWeather, © 2014

See weather overviewHow to use our weather pages